Location: Waco, TX
(31.5480°N, 97.1670°W)
Time: 15:57:03
(UTC-05:00)

ISS - Pass Details

Date: 12 September 2019
Orbit: 411 x 421 km, 51.6° (Epoch: 17 September)

Event Time Altitude Azimuth Distance (km) Brightness Sun altitude
Rises 23:43:09 0° 252° (WSW) 2,330 - -47.1°
Reaches altitude 10° 23:45:30 10° 267° (W) 1,472 - -47.4°
Maximum altitude 23:48:12 23° 322° (NW) 921 - -47.7°
Drops below altitude 10° 23:50:56 10° 18° (NNE) 1,478 - -48.1°
Sets 23:53:18 0° 33° (NNE) 2,343 - -48.4°
